TimeAKDT,TemperatureF,Dew PointF,Humidity,Sea Level PressureIn,VisibilityMPH,Wind Direction,Wind SpeedMPH,Gust SpeedMPH,PrecipitationIn,Events,Conditions,WindDirDegrees,DateUTC
12:55 AM,48.7,44.1,84,30.15,10.0,WSW,17.3,-,N/A,,Mostly Cloudy,250,2012-10-05 08:55:00
1:55 AM,47.7,44.1,87,30.19,10.0,West,13.8,-,N/A,,Mostly Cloudy,270,2012-10-05 09:55:00
2:55 AM,46.8,43.7,89,30.19,10.0,North,6.9,-,N/A,,Clear,360,2012-10-05 10:55:00
3:55 AM,45.9,43.3,91,30.20,10.0,North,5.8,-,N/A,,Mostly Cloudy,350,2012-10-05 11:55:00
4:23 AM,46.4,42.8,87,30.21,10.0,North,5.8,-,N/A,,Overcast,10,2012-10-05 12:23:00
4:55 AM,45.1,43.5,94,30.21,10.0,NNE,5.8,-,N/A,,Overcast,20,2012-10-05 12:55:00
5:55 AM,45.9,43.5,92,30.22,10.0,North,3.5,-,N/A,,Overcast,350,2012-10-05 13:55:00
5:57 AM,46.4,42.8,87,30.22,10.0,North,3.5,-,N/A,,Overcast,360,2012-10-05 13:57:00
5:58 AM,46.4,44.6,93,30.22,10.0,Calm,Calm,-,N/A,,Overcast,0,2012-10-05 13:58:00
6:11 AM,44.6,42.8,93,30.22,10.0,North,4.6,-,N/A,,Overcast,360,2012-10-05 14:11:00
6:17 AM,44.6,42.8,93,30.21,10.0,North,4.6,-,N/A,,Overcast,10,2012-10-05 14:17:00
6:55 AM,43.9,42.6,95,30.21,10.0,NE,4.6,-,N/A,,Overcast,50,2012-10-05 14:55:00
7:10 AM,44.6,42.8,93,30.22,10.0,NE,3.5,-,N/A,,Mostly Cloudy,50,2012-10-05 15:10:00
7:55 AM,44.8,43.2,94,30.22,10.0,Calm,Calm,-,N/A,,Overcast,0,2012-10-05 15:55:00
7:58 AM,44.6,42.8,93,30.22,10.0,Calm,Calm,-,N/A,,Overcast,0,2012-10-05 15:58:00
8:05 AM,44.6,42.8,93,30.22,10.0,Calm,Calm,-,N/A,,Overcast,0,2012-10-05 16:05:00
8:55 AM,45.5,43.0,91,30.21,10.0,NNE,4.6,-,N/A,,Scattered Clouds,30,2012-10-05 16:55:00
9:55 AM,46.0,43.2,90,30.22,10.0,NE,3.5,-,N/A,,Mostly Cloudy,40,2012-10-05 17:55:00
10:31 AM,46.4,42.8,87,30.22,10.0,ENE,4.6,-,N/A,,Light Drizzle,60,2012-10-05 18:31:00
10:55 AM,46.8,43.2,87,30.23,10.0,Calm,Calm,-,0.00,Rain,Light Rain,0,2012-10-05 18:55:00
11:55 AM,46.4,45.1,95,30.23,7.0,ENE,3.5,-,0.01,Rain,Light Rain,60,2012-10-05 19:55:00
12:55 PM,46.9,44.2,90,30.21,9.0,NE,3.5,-,0.03,Rain,Light Rain,40,2012-10-05 20:55:00
1:55 PM,46.8,44.2,91,30.18,9.0,Variable,3.5,-,0.05,Rain,Light Rain,0,2012-10-05 21:55:00
2:55 PM,46.2,44.2,93,30.17,9.0,North,8.1,-,0.04,Rain,Light Rain,360,2012-10-05 22:55:00
3:52 PM,46.4,44.6,93,30.15,6.0,North,5.8,-,N/A,Rain,Rain,10,2012-10-05 23:52:00
3:55 PM,46.0,45.1,97,30.15,6.0,NNE,5.8,-,0.07,Rain,Rain,20,2012-10-05 23:55:00
4:21 PM,46.4,44.6,93,30.13,7.0,NNE,4.6,-,N/A,Rain,Rain,30,2012-10-06 00:21:00
4:39 PM,46.4,44.6,93,30.11,6.0,North,5.8,-,N/A,Rain,Rain,10,2012-10-06 00:39:00
4:51 PM,46.4,44.6,93,30.11,6.0,North,4.6,-,N/A,Rain,Rain,360,2012-10-06 00:51:00
4:55 PM,45.9,45.1,97,30.11,6.0,North,5.8,-,0.12,Rain,Rain,360,2012-10-06 00:55:00
5:03 PM,46.4,44.6,93,30.11,6.0,North,5.8,-,N/A,Rain,Rain,360,2012-10-06 01:03:00
5:47 PM,46.4,44.6,93,30.10,6.0,Calm,Calm,-,N/A,Rain,Light Rain,0,2012-10-06 01:47:00
5:55 PM,46.0,45.5,98,30.10,5.0,Calm,Calm,-,0.13,Rain,Rain,0,2012-10-06 01:55:00
6:37 PM,46.4,46.4,100,30.10,7.0,Calm,Calm,-,N/A,Rain,Light Rain,0,2012-10-06 02:37:00
6:55 PM,46.0,45.5,98,30.10,7.0,Calm,Calm,-,0.09,Rain,Light Rain,0,2012-10-06 02:55:00
7:05 PM,46.4,46.4,100,30.10,7.0,Calm,Calm,-,N/A,Rain,Light Rain,0,2012-10-06 03:05:00
7:30 PM,46.4,44.6,93,30.11,10.0,Calm,Calm,-,N/A,Rain,Light Rain,0,2012-10-06 03:30:00
7:55 PM,45.9,45.3,98,30.11,10.0,Calm,Calm,-,0.04,Rain,Light Rain,0,2012-10-06 03:55:00
8:31 PM,46.4,46.4,100,30.11,10.0,Calm,Calm,-,N/A,,Overcast,0,2012-10-06 04:31:00
8:48 PM,46.4,44.6,93,30.11,2.5,Calm,Calm,-,N/A,,Overcast,0,2012-10-06 04:48:00
8:50 PM,46.4,44.6,93,30.11,1.5,Calm,Calm,-,N/A,,Overcast,0,2012-10-06 04:50:00
8:52 PM,44.6,44.6,100,30.11,1.2,Calm,Calm,-,N/A,,Overcast,0,2012-10-06 04:52:00
8:54 PM,44.6,44.6,100,30.11,1.0,Calm,Calm,-,N/A,,Overcast,0,2012-10-06 04:54:00
8:55 PM,45.3,45.1,99,30.11,1.0,Calm,Calm,-,0.01,,Overcast,0,2012-10-06 04:55:00
9:02 PM,44.6,44.6,100,30.11,1.2,Calm,Calm,-,N/A,,Overcast,0,2012-10-06 05:02:00
9:04 PM,44.6,44.6,100,30.11,1.5,Calm,Calm,-,N/A,,Overcast,0,2012-10-06 05:04:00
9:05 PM,44.6,44.6,100,30.11,1.8,Calm,Calm,-,N/A,,Overcast,0,2012-10-06 05:05:00
9:06 PM,44.6,44.6,100,30.11,2.0,Calm,Calm,-,N/A,,Overcast,0,2012-10-06 05:06:00
9:16 PM,44.6,44.6,100,30.11,2.0,Calm,Calm,-,N/A,,Overcast,0,2012-10-06 05:16:00
9:19 PM,44.6,44.6,100,30.10,3.0,Calm,Calm,-,N/A,,Overcast,0,2012-10-06 05:19:00
9:21 PM,44.6,44.6,100,30.10,5.0,Calm,Calm,-,N/A,,Overcast,0,2012-10-06 05:21:00
9:41 PM,46.4,44.6,93,30.11,4.0,Calm,Calm,-,N/A,,Overcast,0,2012-10-06 05:41:00
9:44 PM,46.4,46.4,100,30.11,2.5,Calm,Calm,-,N/A,,Overcast,0,2012-10-06 05:44:00
9:46 PM,46.4,46.4,100,30.11,2.0,Calm,Calm,-,N/A,,Overcast,0,2012-10-06 05:46:00
9:47 PM,46.4,46.4,100,30.11,2.0,Calm,Calm,-,N/A,,Overcast,0,2012-10-06 05:47:00
9:48 PM,46.4,46.4,100,30.11,2.0,Calm,Calm,-,N/A,,Overcast,0,2012-10-06 05:48:00
9:49 PM,46.4,46.4,100,30.11,2.5,Calm,Calm,-,N/A,,Overcast,0,2012-10-06 05:49:00
9:52 PM,46.4,46.4,100,30.11,3.0,Calm,Calm,-,N/A,,Overcast,0,2012-10-06 05:52:00
9:55 PM,45.9,45.5,99,30.12,5.0,Calm,Calm,-,N/A,,Overcast,0,2012-10-06 05:55:00
9:56 PM,46.4,46.4,100,30.12,6.0,Calm,Calm,-,N/A,,Overcast,0,2012-10-06 05:56:00
10:55 PM,45.7,45.5,99,30.12,10.0,NE,3.5,-,N/A,,Overcast,40,2012-10-06 06:55:00
11:19 PM,46.4,44.6,93,30.11,10.0,Calm,Calm,-,N/A,,Overcast,0,2012-10-06 07:19:00
11:46 PM,46.4,46.4,100,30.12,10.0,NNW,3.5,-,N/A,Rain,Light Rain,340,2012-10-06 07:46:00
11:55 PM,45.9,45.3,98,30.12,10.0,Calm,Calm,-,0.00,Rain,Light Rain,0,2012-10-06 07:55:00